Tampa Knight Airport, FL

11:30 AM EST on December 10, 2019 (GMT -0500)
Knight

Weather History for KTPF - October, 2019

Change the Weather History Date:

Monday, October 21, 2019

  Actual Average (WUND) Record (WUND)
Temperature  
Mean Temperature 81 °F -  
Max Temperature 87 °F - - (-1)
Min Temperature 75 °F - - (-1)
Cooling Degree Days 16    
Growing Degree Days 31 (Base 50)    
Moisture  
Dew Point 76 °F    
Average Humidity 90    
Maximum Humidity 100    
Minimum Humidity 79    
Precipitation  
Precipitation 0.33 in - - ()
Sea Level Pressure  
Sea Level Pressure 29.97 in    
Wind  
Wind Speed 5 mph ()    
Max Wind Speed 15 mph    
Max Gust Speed 26 mph    
Visibility 9.6 miles    
Events Rain    
Averages and records for this station are not official NWS values.
T = Trace of Precipitation, MM = Missing Value Source: Averaged Metar Reports

Daily Weather History Graph

Daily Weather History Graph

Search for Another Location

Airport or City:

Astronomy

Oct. 21, 2019 Rise Set
Actual Time 7:33 AM EDT 6:54 PM EDT
Civil Twilight 7:09 AM EDT 7:18 PM EDT
Nautical Twilight 6:42 AM EDT 7:46 PM EDT
Astronomical Twilight 6:15 AM EDT 8:13 PM EDT
Moon 12:22 AM EDT (10/21) 2:33 PM EDT (10/21)
Length of Visible Light 12h 08m
Length of Day
11h 21m
Waning Gibbous, 48% of the Moon is Illuminated
Oct 21
Waning Gibbous
Oct 27
New
Nov 4
First Quarter
Nov 12
Full
Nov 19
Last Quarter

Hourly Weather History & Observations

Time (EDT) Temp. Heat Index Dew Point Humidity Pressure Visibility Wind Dir Wind Speed Gust Speed Precip Events Conditions
12:15 AM 75.2 °F - 71.6 °F 89% 29.98 in 10.0 mi NE 3.5 mph - N/A   Overcast
12:35 AM 75.2 °F - 69.8 °F 83% 29.97 in 10.0 mi NE 5.8 mph - N/A   Overcast
12:55 AM 75.2 °F - 69.8 °F 83% 29.97 in 10.0 mi NNE 5.8 mph - N/A   Overcast
1:15 AM 75.2 °F - 69.8 °F 83% 29.97 in 10.0 mi NE 4.6 mph - N/A   Overcast
1:55 AM 75.2 °F - 71.6 °F 89% 29.96 in 10.0 mi ENE 5.8 mph - N/A   Overcast
2:15 AM 75.2 °F - 71.6 °F 89% 29.96 in 10.0 mi ENE 5.8 mph - N/A   Overcast
2:35 AM 75.2 °F - 71.6 °F 89% 29.96 in 10.0 mi ENE 4.6 mph - N/A   Overcast
2:55 AM 75.2 °F - 71.6 °F 89% 29.95 in 10.0 mi ENE 4.6 mph - N/A   Overcast
3:35 AM 75.2 °F - 71.6 °F 89% 29.95 in 10.0 mi ENE 3.5 mph - N/A   Overcast
3:55 AM 75.2 °F - 71.6 °F 89% 29.95 in 10.0 mi Calm Calm - N/A   Overcast
4:15 AM 75.2 °F - 71.6 °F 89% 29.95 in 10.0 mi Calm Calm - N/A   Overcast
4:35 AM 75.2 °F - 71.6 °F 89% 29.95 in 10.0 mi Calm Calm - N/A   Overcast
4:55 AM 75.2 °F - 71.6 °F 89% 29.95 in 10.0 mi Calm Calm - N/A   Overcast
5:15 AM 75.2 °F - 73.4 °F 94% 29.94 in 10.0 mi East 5.8 mph - N/A   Overcast
5:35 AM 75.2 °F - 73.4 °F 94% 29.94 in 10.0 mi ENE 6.9 mph - N/A   Overcast
5:55 AM 75.2 °F - 73.4 °F 94% 29.94 in 10.0 mi ENE 5.8 mph - N/A   Overcast
6:15 AM 75.2 °F - 73.4 °F 94% 29.95 in 10.0 mi ENE 5.8 mph - N/A   Overcast
6:35 AM 75.2 °F - 73.4 °F 94% 29.96 in 10.0 mi ENE 5.8 mph - N/A   Overcast
6:55 AM 75.2 °F - 73.4 °F 94% 29.96 in 10.0 mi East 6.9 mph - N/A   Overcast
7:15 AM 75.2 °F - 73.4 °F 94% 29.95 in 10.0 mi East 5.8 mph - N/A   Overcast
7:35 AM 75.2 °F - 73.4 °F 94% 29.96 in 10.0 mi East 4.6 mph - N/A   Overcast
7:55 AM 75.2 °F - 75.2 °F 100% 29.95 in 10.0 mi ENE 6.9 mph - N/A   Overcast
8:15 AM 77.0 °F - 73.4 °F 89% 29.96 in 10.0 mi ENE 5.8 mph - N/A   Overcast
8:35 AM 77.0 °F - 77.0 °F 100% 29.96 in 10.0 mi East 4.6 mph - N/A   Overcast
8:55 AM 77.0 °F - 77.0 °F 100% 29.96 in 2.5 mi East 5.8 mph - 0.09 in Rain Light Rain
9:15 AM - - - N/A% 29.97 in 10.0 mi Calm Calm - N/A   Overcast
9:35 AM - - - N/A% 29.98 in 10.0 mi ESE 4.6 mph - N/A   Overcast
9:55 AM - - - N/A% 29.98 in 10.0 mi South 5.8 mph - N/A Rain Light Rain
10:15 AM - - - N/A% 29.98 in 4.0 mi WSW 4.6 mph - 0.02 in Rain Rain
10:35 AM - - - N/A% 29.99 in 4.0 mi Calm Calm - 0.11 in Rain Light Rain
10:55 AM - - - N/A% 30.00 in 10.0 mi WSW 5.8 mph - 0.11 in   Overcast
11:15 AM - - - N/A% 30.00 in 1.8 mi West 4.6 mph - 0.11 in Rain Rain
11:35 AM - - - N/A% 29.99 in 7.0 mi Calm Calm - 0.13 in   Light Drizzle
11:55 AM - - - N/A% 29.99 in 10.0 mi Calm Calm - 0.13 in   Overcast
12:15 PM - - - N/A% 30.00 in 10.0 mi Calm Calm - N/A   Overcast
12:35 PM - - - N/A% 30.00 in 10.0 mi Calm Calm - N/A   Overcast
12:55 PM - - - N/A% 30.00 in 10.0 mi Calm Calm - N/A   Overcast
1:15 PM - - - N/A% 30.00 in 10.0 mi South 3.5 mph - N/A   Overcast
1:35 PM - - - N/A% 29.99 in 10.0 mi SSW 3.5 mph - N/A   Scattered Clouds
1:55 PM 86.0 °F 111.5 °F 86.0 °F 100% 29.98 in 10.0 mi SW 10.4 mph - N/A   Mostly Cloudy
2:15 PM 87.8 °F 104.9 °F 80.6 °F 79% 29.97 in 10.0 mi SW 13.8 mph 18.4 mph N/A   Mostly Cloudy
2:35 PM 86.0 °F 99.3 °F 78.8 °F 79% 29.97 in 10.0 mi SW 15.0 mph - N/A   Overcast
2:55 PM 86.0 °F 99.3 °F 78.8 °F 79% 29.96 in 10.0 mi SW 13.8 mph - N/A   Overcast
3:15 PM 86.0 °F 99.3 °F 78.8 °F 79% 29.96 in 10.0 mi SW 10.4 mph - N/A   Overcast
3:35 PM 86.0 °F 99.3 °F 78.8 °F 79% 29.96 in 10.0 mi WSW 6.9 mph - N/A   Overcast
3:55 PM 86.0 °F 99.3 °F 78.8 °F 79% 29.97 in 10.0 mi SW 11.5 mph 16.1 mph N/A   Overcast
4:15 PM 82.4 °F 90.9 °F 77.0 °F 84% 29.98 in 10.0 mi SW 15.0 mph 26.5 mph N/A   Overcast
4:35 PM 80.6 °F 87.1 °F 77.0 °F 89% 29.96 in 10.0 mi SW 10.4 mph 18.4 mph N/A   Overcast
4:55 PM 82.4 °F 89.5 °F 75.2 °F 79% 29.96 in 10.0 mi SW 12.7 mph 18.4 mph N/A   Overcast
5:15 PM 82.4 °F 90.9 °F 77.0 °F 84% 29.96 in 10.0 mi SW 9.2 mph - N/A   Overcast
5:35 PM 82.4 °F 92.4 °F 78.8 °F 89% 29.96 in 10.0 mi SW 8.1 mph - N/A   Overcast
5:55 PM 82.4 °F 92.4 °F 78.8 °F 89% 29.95 in 10.0 mi SSW 9.2 mph - N/A   Overcast
6:15 PM 82.4 °F 94.0 °F 80.6 °F 94% 29.96 in 10.0 mi SW 6.9 mph - N/A   Overcast
6:35 PM 82.4 °F 94.0 °F 80.6 °F 94% 29.97 in 10.0 mi WSW 4.6 mph - N/A   Overcast
6:55 PM 82.4 °F 94.0 °F 80.6 °F 94% 29.97 in 10.0 mi SW 5.8 mph - N/A   Overcast
7:15 PM 82.4 °F 94.0 °F 80.6 °F 94% 29.97 in 10.0 mi SW 6.9 mph - N/A   Overcast
7:35 PM 82.4 °F 96.1 °F 82.4 °F 100% 29.98 in 10.0 mi SW 5.8 mph - N/A   Overcast
7:55 PM 82.4 °F 96.1 °F 82.4 °F 100% 29.98 in 10.0 mi SW 4.6 mph - N/A   Overcast
8:15 PM 82.4 °F 96.1 °F 82.4 °F 100% 29.98 in 10.0 mi SW 4.6 mph - N/A   Mostly Cloudy
8:35 PM - - - N/A% 29.98 in 10.0 mi SW 3.5 mph - N/A   Overcast
8:55 PM - - - N/A% 29.98 in 10.0 mi SW 5.8 mph - N/A   Mostly Cloudy
9:15 PM - - - N/A% 29.99 in 10.0 mi SW 4.6 mph - N/A   Mostly Cloudy
9:35 PM - - - N/A% 29.99 in 10.0 mi Calm Calm - N/A   Mostly Cloudy
9:55 PM - - - N/A% 29.99 in 10.0 mi Calm Calm - N/A   Mostly Cloudy
10:15 PM - - - N/A% 30.00 in 10.0 mi SW 3.5 mph - N/A   Mostly Cloudy
10:35 PM - - - N/A% 30.01 in 10.0 mi SSW 4.6 mph - N/A   Mostly Cloudy
10:55 PM - - - N/A% 30.01 in 10.0 mi SSW 4.6 mph - N/A   Mostly Cloudy
11:15 PM - - - N/A% 30.01 in 10.0 mi South 4.6 mph - N/A   Mostly Cloudy
11:35 PM - - - N/A% 30.01 in 10.0 mi SSW 4.6 mph - N/A   Mostly Cloudy
11:55 PM - - - N/A% 30.01 in 10.0 mi SSW 5.8 mph - N/A   Mostly Cloudy